Wind_Speed
45 44 42 40 39 37 35 33 32 31 30 28 27 26 26 25 24 23 22 23 23 23 24 24 25 25 26 26 27 28 29 30 31 32 32 33 34 34 34 34 34 34 34
47 46 44 43 40 38 37 35 34 32 31 30 29 28 27 26 25 24 24 24 24 25 25 25 26 26 27 27 28 29 30 31 32 33 33 34 34 34 34 34 35 35 35
49 47 46 44 42 40 38 36 35 34 33 32 31 30 29 27 27 26 26 26 26 26 26 27 27 28 28 29 29 30 31 32 33 34 34 35 34 35 35 35 36 36 36
51 49 48 46 44 41 39 38 37 36 35 34 33 31 30 29 29 28 28 28 27 27 28 28 28 29 29 30 30 31 32 33 34 34 35 35 35 35 35 36 37 37 37
52 50 49 47 45 43 41 40 39 38 36 35 34 33 31 31 31 30 29 29 29 29 29 29 29 30 30 31 32 32 33 34 34 35 35 36 36 37 36 36 37 38 38
53 51 50 48 46 45 43 42 40 39 37 36 35 34 33 33 32 31 31 30 30 30 30 30 30 31 31 32 33 33 34 35 35 35 36 36 37 37 37 38 38 38 39
53 52 51 50 48 46 44 43 41 40 39 38 36 35 34 34 34 33 32 32 31 31 31 31 31 32 32 33 33 34 35 35 35 36 37 37 37 38 38 39 39 40 40
54 53 52 51 49 47 45 44 43 41 40 39 38 37 36 35 35 34 34 33 33 33 33 32 32 33 33 33 34 35 35 36 36 36 37 38 38 38 39 40 41 41 42
54 54 53 52 50 48 46 45 44 43 41 40 39 38 37 36 36 35 35 34 34 34 34 33 33 34 33 34 35 35 36 36 36 37 38 38 39 39 40 41 42 43 43
54 54 53 53 51 49 47 46 45 44 42 41 40 39 38 38 37 36 36 36 35 35 34 34 34 34 34 34 35 36 36 37 37 38 38 39 40 40 41 42 43 44 45
54 54 53 52 52 51 49 48 46 45 44 43 41 40 39 39 38 37 37 37 36 36 35 35 35 35 35 35 35 36 37 37 38 38 39 40 40 41 42 43 44 45 46
53 54 53 52 52 51 50 48 47 45 44 44 43 42 41 40 38 38 37 37 37 36 36 35 35 35 35 36 36 36 37 38 38 39 40 41 41 42 43 44 44 46 47
52 53 53 52 52 51 50 49 48 47 45 44 43 42 41 40 39 38 38 37 37 37 36 35 35 36 36 36 36 37 38 38 39 40 40 41 42 43 43 44 45 46 47
49 50 51 52 51 51 51 50 49 48 46 45 43 43 42 40 40 39 39 38 38 37 36 36 36 36 36 36 37 37 39 39 40 40 41 42 42 43 44 45 46 47 48
47 48 50 50 50 50 50 50 49 48 47 45 44 43 42 41 40 40 39 38 37 37 36 36 36 36 36 36 37 38 39 40 40 40 41 42 43 44 45 46 47 48 49
44 46 47 48 48 48 49 49 48 47 46 45 44 43 42 42 41 40 39 38 37 36 36 36 36 36 36 37 38 39 39 39 40 40 41 42 43 44 45 46 47 48 49
43 45 45 45 46 47 47 47 47 46 46 45 44 43 42 41 40 40 39 38 38 37 37 37 36 37 37 38 38 39 39 39 39 40 41 42 43 44 45 46 47 48 48
44 44 44 44 44 45 45 46 46 46 45 43 42 42 42 41 40 39 39 39 38 37 37 36 36 37 37 38 38 38 38 38 39 39 41 42 43 44 45 46 46 47 47
46 45 44 44 43 43 44 44 44 44 44 43 42 42 41 40 40 39 39 38 38 37 37 36 36 37 37 37 37 37 38 38 39 40 41 42 43 44 45 45 46 47 47
47 46 45 44 43 43 43 43 43 43 42 42 42 42 41 40 40 39 39 38 37 37 36 36 36 36 36 37 37 37 38 38 39 40 41 42 43 44 44 45 46 47 48
47 46 45 45 44 44 44 43 42 42 42 42 42 42 41 40 39 39 39 38 37 37 36 37 37 36 36 37 37 37 38 39 39 40 41 42 43 44 45 46 47 47 49
47 46 46 46 45 45 44 44 43 42 42 42 41 41 41 40 40 39 39 38 37 37 37 37 37 37 36 37 37 38 38 39 39 40 41 42 43 44 45 46 48 49 50
47 46 46 46 45 45 44 44 43 43 42 41 41 40 40 40 39 39 38 37 37 37 37 36 36 36 36 36 38 38 38 39 39 40 41 42 43 44 46 47 49 50 51
46 46 46 45 45 44 43 43 43 43 42 41 40 40 39 39 38 38 37 37 37 36 36 36 36 35 36 36 37 37 37 38 39 40 41 42 43 45 47 48 49 50 52
45 45 44 44 44 44 44 43 43 42 42 42 41 40 39 38 37 36 36 36 35 35 35 36 36 36 36 36 36 36 37 38 39 40 41 42 44 46 47 49 50 51 52
44 44 45 45 45 44 43 43 42 42 42 42 41 40 39 37 36 35 35 34 35 35 35 35 35 35 35 36 36 37 38 39 40 41 42 43 45 47 48 49 50 51 52
Wind_Direction
225 226 226 227 228 229 230 231 233 236 238 240 242 245 248 253 259 263 268 272 277 281 285 288 292 295 298 301 302 305 306 308 309 310 312 312 313 313 313 313 313 314 314
225 226 227 228 229 230 232 232 234 236 238 240 243 245 248 253 259 263 267 271 275 280 284 287 290 294 297 299 301 304 305 307 308 309 310 311 312 312 312 312 312 313 313
226 227 228 229 230 231 233 234 235 237 239 241 242 245 249 254 259 263 266 270 275 279 283 286 289 292 294 297 300 302 304 306 308 309 310 310 311 311 312 312 311 312 312
227 228 229 230 231 232 234 235 236 238 239 241 244 247 251 254 258 262 266 270 274 278 282 285 287 290 293 296 298 301 303 305 307 308 309 310 310 310 310 310 310 310 311
228 229 229 231 232 233 234 236 237 238 239 242 245 248 251 254 258 262 266 270 274 277 280 283 287 289 292 295 297 300 303 305 306 307 308 309 309 309 309 309 309 310 310
229 230 231 231 232 233 235 236 237 239 241 243 246 249 252 255 258 262 266 270 274 276 279 283 286 288 291 294 296 300 302 304 305 306 307 307 308 308 308 308 309 309 309
229 230 231 232 233 234 235 237 238 239 241 243 246 248 252 255 259 262 266 269 272 275 278 282 284 287 290 293 296 299 301 302 304 305 306 306 306 307 307 307 308 308 309
229 231 232 233 233 235 235 237 238 239 241 243 246 249 252 255 258 262 265 268 272 275 278 280 283 286 289 292 295 297 299 301 303 304 305 305 305 306 306 306 307 307 308
229 231 232 233 234 235 236 237 238 239 241 243 246 249 252 255 258 262 264 267 271 274 277 279 282 285 287 291 294 296 298 300 302 303 304 304 305 305 305 306 306 307 307
230 231 232 233 234 235 236 237 238 239 241 244 246 249 252 255 258 261 264 267 270 273 275 278 281 283 286 289 292 295 297 299 301 302 303 303 304 304 305 305 305 306 308
231 231 233 234 235 236 236 238 239 241 242 244 246 249 252 255 258 261 264 267 270 272 274 277 280 283 286 289 291 293 296 298 300 301 301 302 303 304 304 305 305 306 307
231 232 233 234 236 236 236 238 239 241 242 244 246 248 251 255 258 260 263 266 269 271 274 276 279 283 285 288 291 293 295 297 299 300 301 301 302 303 304 305 305 306 307
231 232 233 235 236 237 237 238 239 241 242 244 246 248 251 254 256 259 262 265 268 271 273 276 279 282 285 287 290 292 295 297 298 299 300 301 302 303 304 304 305 306 307
229 231 233 234 235 236 237 238 239 241 242 244 245 248 250 253 256 259 261 264 267 270 272 275 278 281 284 287 289 292 294 296 297 298 299 300 302 303 304 305 306 307 307
230 230 231 232 234 235 236 237 238 240 242 243 245 248 251 253 256 258 261 264 266 269 272 275 278 281 283 286 289 291 293 295 296 297 299 300 302 304 305 306 306 307 307
229 230 230 230 231 232 234 236 237 239 241 243 245 248 250 253 255 258 260 263 265 268 271 274 277 280 283 286 288 291 293 294 296 297 299 301 303 304 305 306 307 307 308
226 227 228 228 230 231 233 235 237 239 240 243 245 247 250 253 255 257 259 262 265 267 270 273 277 280 283 286 288 290 292 294 296 298 299 301 303 304 306 307 307 308 308
225 226 228 227 227 229 232 233 235 238 240 242 245 247 250 253 255 257 259 261 264 267 270 274 277 280 283 286 288 290 292 294 296 298 300 302 304 305 306 308 308 309 309
227 227 227 227 227 229 231 233 235 237 239 242 244 248 250 251 253 256 259 262 265 268 271 274 277 279 283 286 288 290 292 294 296 298 300 302 303 305 307 308 309 310 310
226 226 227 227 228 229 231 233 235 237 239 241 244 246 248 250 252 255 258 261 265 268 271 275 277 280 284 286 289 290 292 294 296 298 300 302 304 305 307 308 309 310 310
225 226 227 228 228 230 232 233 235 237 239 241 243 245 247 249 252 255 258 261 264 268 271 274 278 281 284 287 289 290 291 293 296 298 300 302 304 305 307 309 310 310 311
223 224 225 227 228 230 232 233 235 236 239 241 243 245 247 250 252 256 258 261 264 267 270 273 277 280 283 286 288 289 290 293 296 298 300 302 304 305 307 309 310 311 312
224 225 226 226 228 229 231 233 235 237 238 240 242 245 248 251 253 256 259 261 264 268 271 274 277 280 283 285 287 288 290 293 296 298 300 302 304 305 307 309 310 311 312
225 226 227 227 228 229 231 232 234 235 237 239 242 245 247 250 253 256 259 262 265 269 271 274 277 279 282 285 287 289 291 294 296 298 301 302 304 306 307 309 310 311 312
226 227 228 228 228 229 230 232 233 235 237 239 241 245 247 249 252 255 259 262 265 268 271 274 276 279 282 285 287 289 291 294 296 298 300 302 304 307 308 310 311 312 313
227 228 229 229 229 230 231 232 234 237 239 240 243 245 246 249 252 256 259 262 265 268 271 274 276 279 282 285 287 290 292 294 296 299 301 303 306 308 309 310 311 312 313
Height
5760 5766 5771 5776 5780 5785 5790 5794 5798 5801 5805 5808 5811 5813 5815 5817 5818 5819 5820 5820 5820 5820 5820 5819 5818 5817 5816 5814 5812 5810 5808 5806 5803 5800 5797 5794 5790 5787 5783 5779 5775 5772 5768
5752 5758 5764 5769 5774 5779 5784 5788 5792 5796 5799 5803 5805 5807 5809 5811 5813 5814 5815 5815 5815 5815 5815 5814 5813 5812 5810 5809 5807 5805 5803 5800 5797 5794 5791 5788 5785 5781 5777 5774 5770 5766 5762
5744 5750 5756 5762 5767 5773 5777 5782 5786 5789 5793 5796 5798 5801 5804 5806 5807 5808 5809 5809 5809 5809 5809 5808 5807 5806 5805 5803 5801 5799 5797 5794 5791 5788 5785 5782 5779 5775 5771 5767 5763 5759 5755
5735 5742 5748 5754 5760 5766 5771 5775 5779 5782 5786 5789 5792 5795 5798 5800 5801 5802 5803 5803 5804 5804 5803 5802 5801 5800 5799 5797 5795 5793 5791 5788 5785 5782 5778 5775 5772 5769 5765 5761 5757 5753 5749
5727 5734 5740 5747 5753 5758 5763 5767 5771 5775 5779 5782 5786 5789 5791 5793 5794 5795 5797 5797 5798 5797 5797 5796 5795 5794 5793 5791 5789 5787 5784 5781 5778 5775 5772 5768 5765 5761 5758 5755 5751 5746 5741
5719 5726 5732 5738 5744 5750 5755 5759 5764 5768 5772 5775 5778 5781 5784 5786 5787 5789 5790 5791 5791 5791 5791 5790 5789 5788 5786 5784 5782 5780 5777 5774 5771 5768 5765 5761 5758 5754 5750 5747 5743 5739 5735
5710 5717 5723 5729 5735 5741 5747 5751 5756 5760 5764 5768 5771 5774 5776 5778 5780 5782 5783 5784 5784 5784 5784 5783 5782 5781 5779 5777 5775 5773 5770 5767 5764 5761 5758 5754 5750 5746 5743 5739 5735 5732 5728
5701 5708 5714 5720 5727 5733 5738 5743 5748 5752 5756 5760 5764 5766 5768 5771 5773 5774 5776 5777 5777 5777 5776 5776 5775 5774 5772 5770 5768 5766 5763 5760 5757 5754 5750 5747 5743 5739 5735 5731 5727 5723 5719
5691 5698 5704 5711 5717 5724 5729 5735 5739 5744 5748 5752 5755 5758 5761 5763 5765 5767 5768 5769 5769 5769 5769 5768 5767 5766 5765 5763 5761 5758 5755 5753 5749 5746 5742 5739 5735 5731 5727 5722 5718 5714 5710
5681 5688 5695 5701 5708 5714 5720 5725 5730 5735 5739 5743 5747 5750 5753 5755 5757 5758 5760 5761 5761 5761 5761 5761 5760 5758 5757 5755 5753 5751 5748 5745 5742 5738 5735 5731 5727 5723 5718 5714 5709 5704 5699
5671 5678 5685 5692 5698 5704 5710 5716 5721 5726 5730 5734 5738 5741 5744 5746 5748 5750 5751 5752 5753 5753 5753 5752 5752 5750 5749 5747 5745 5742 5740 5737 5734 5730 5726 5723 5719 5714 5710 5705 5700 5695 5690
5659 5667 5674 5681 5687 5694 5701 5706 5712 5717 5721 5725 5729 5732 5735 5737 5739 5741 5743 5744 5744 5744 5744 5744 5743 5742 5741 5739 5737 5734 5731 5729 5725 5722 5718 5714 5710 5706 5701 5696 5691 5686 5680
5648 5656 5663 5670 5677 5684 5691 5696 5702 5707 5712 5716 5720 5723 5726 5728 5731 5732 5733 5734 5735 5736 5735 5735 5734 5733 5732 5730 5728 5726 5723 5720 5717 5713 5709 5705 5701 5696 5692 5687 5682 5676 5671
5637 5645 5652 5660 5667 5674 5680 5686 5692 5697 5702 5706 5710 5714 5717 5719 5721 5723 5724 5725 5726 5726 5726 5726 5726 5725 5723 5722 5720 5717 5714 5711 5708 5704 5700 5696 5692 5687 5682 5677 5672 5666 5661
5627 5635 5642 5649 5656 5663 5670 5676 5682 5687 5692 5696 5701 5704 5707 5710 5712 5714 5715 5716 5717 5717 5717 5717 5717 5716 5714 5713 5711 5708 5705 5702 5699 5695 5691 5687 5682 5678 5673 5667 5662 5656 5651
5617 5624 5631 5639 5646 5653 5659 5666 5671 5677 5682 5687 5691 5694 5697 5700 5702 5704 5706 5707 5707 5708 5708 5708 5708 5707 5706 5704 5702 5699 5696 5693 5690 5686 5682 5678 5673 5668 5663 5658 5652 5646 5640
5607 5614 5621 5629 5636 5643 5649 5655 5661 5666 5671 5676 5680 5684 5687 5690 5692 5694 5696 5697 5698 5699 5699 5699 5698 5698 5696 5694 5692 5690 5687 5684 5681 5677 5673 5669 5664 5659 5654 5648 5642 5636 5629
5598 5605 5612 5619 5626 5632 5639 5645 5650 5656 5661 5666 5670 5674 5677 5680 5682 5684 5686 5688 5689 5689 5690 5690 5689 5688 5687 5685 5683 5680 5677 5675 5671 5668 5664 5660 5655 5650 5644 5638 5632 5626 5619
5589 5596 5603 5610 5617 5623 5629 5635 5641 5646 5651 5656 5660 5663 5667 5670 5672 5675 5677 5678 5679 5680 5680 5680 5680 5679 5677 5675 5673 5671 5668 5665 5662 5659 5655 5650 5646 5641 5635 5630 5623 5617 5610
5580 5587 5594 5601 5608 5614 5620 5626 5631 5636 5641 5646 5650 5653 5657 5660 5662 5665 5666 5668 5669 5670 5671 5671 5670 5669 5668 5666 5664 5661 5659 5656 5653 5649 5645 5641 5636 5631 5625 5620 5614 5608 5601
5571 5578 5585 5592 5599 5605 5611 5616 5622 5627 5632 5636 5640 5643 5647 5650 5652 5655 5657 5658 5660 5660 5661 5661 5660 5659 5658 5656 5654 5652 5649 5647 5643 5640 5636 5631 5626 5621 5616 5610 5604 5598 5591
5561 5568 5575 5582 5589 5595 5601 5607 5612 5617 5621 5626 5630 5634 5637 5640 5642 5645 5647 5648 5650 5651 5651 5651 5651 5650 5648 5647 5645 5642 5640 5637 5634 5630 5626 5622 5617 5612 5606 5600 5594 5587 5581
5552 5559 5566 5573 5579 5585 5591 5597 5602 5607 5612 5616 5620 5624 5627 5630 5632 5635 5637 5639 5640 5641 5641 5641 5641 5640 5639 5637 5635 5632 5630 5627 5624 5621 5617 5612 5607 5602 5596 5590 5583 5577 5570
5542 5549 5556 5563 5569 5575 5581 5587 5592 5597 5602 5606 5610 5614 5617 5620 5623 5625 5627 5629 5630 5631 5632 5632 5631 5630 5629 5627 5625 5623 5620 5617 5614 5611 5606 5602 5597 5592 5586 5580 5573 5566 5559
5532 5539 5546 5553 5559 5565 5571 5577 5582 5587 5592 5596 5600 5604 5607 5611 5613 5616 5618 5620 5621 5621 5622 5622 5621 5620 5619 5618 5615 5613 5611 5608 5604 5600 5596 5592 5587 5581 5575 5569 5562 5555 5548
5523 5529 5536 5543 5549 5555 5561 5566 5572 5577 5582 5586 5590 5594 5598 5601 5604 5606 5608 5609 5611 5611 5612 5612 5611 5610 5609 5607 5606 5603 5601 5597 5594 5590 5586 5582 5576 5571 5565 5559 5552 5545 5537